Regional Weather Roundup
Issued by NWS

Home | Current Version | Previous Version | Graphics & Text | Print | Product List | Glossary On
Versions: 1 2 3 4 5 6 7 8 9 10 11 12 13 14 15 16 17 18 19 20 21 22 23 24 25 26 27 28 29 30 31 32 33 34 35 36 37 38 39 40 41 42 43 44 45 46 47 48 49 50
000
ASUS43 KIND 190909
RWRIN

WEATHER ROUNDUP FOR INDIANA
NATIONAL WEATHER SERVICE INDIANAPOLIS IN
500 AM EDT THU APR 19 2018

NOTE: "FAIR" INDICATES FEW OR NO CLOUDS BELOW 12,000 FEET WITH NO
SIGNIFICANT WEATHER AND/OR OBSTRUCTIONS TO VISIBILITY.

* - STATION DOES NOT REPORT WEATHER SUCH AS PRECIPITATION OR FOG.

+ - STATION NOT QUALITY CONTROLLED BY THE NATIONAL WEATHER SERVICE.
    USE DATA WITH CAUTION...ESPECIALLY DEWPOINT AND RELATIVE
    HUMIDITY OBSERVATIONS.

INZ001>003-010>013-019-020-191000-
NORTHWEST INDIANA

CITY           SKY/WX    TMP DP  RH WIND       PRES   REMARKS
GARY /AIRPORT/ CLOUDY    37  35  91 N14G20    30.07R WCI  28
KNOX *+        CLOUDY    34  32  93 N16       30.01R WCI  23
LA PORTE +     CLOUDY    33  32  96 N12       30.03R WCI  24
MICHIGAN CITY+ CLOUDY    34  34 100 N9        30.04R WCI  26
MONTICELLO +   DRIZZLE   33  32  96 N12       29.98R WCI  24
RENSSELAER +   CLOUDY    34  32  93 N7        30.02R WCI  28
VALPARAISO     CLOUDY    36  32  85 N14G20    30.03R WCI  27

$$

LMZ046-743>745-191000-
SOUTHERN LAKE MICHIGAN

STATION/POSITION TIME  TEMP    WIND        PRES    WAVE
                       AIR SEA DIR/SP/G            HT
                 (UTC) (F)     (DEG/KT/KT) (MB)    (FT)
BURNS HARBOR     0840   36      30/ 20/ 26 1017.6R
MICHIGAN CITY    0840   35     360/ 22/ 24   N/A

$$

INZ004-005-014>016-021>024-191000-
NORTH CENTRAL INDIANA

CITY           SKY/WX    TMP DP  RH WIND       PRES   REMARKS
GOSHEN         MIX PCPN  33  31  92 N10G20    29.98R WCI  25
LOGANSPORT +   LGT RAIN  32  32 100 NW8       29.97R WCI  25
PERU/GRISSOM   CLOUDY    34  34 100 NW14      29.95R WCI  24
ROCHESTER +    FLURRIES  34  34 100 N14G20    29.98R WCI  24
SOUTH BEND     FLURRIES  32  31  96 N10       30.02R WCI  24
WARSAW +       CLOUDY    32  32 100 NE8G16    29.97R WCI  25

$$

INZ006>009-017-018-025>027-191000-
NORTHEAST INDIANA

CITY           SKY/WX    TMP DP  RH WIND       PRES   REMARKS
ANGOLA *+      LGT SNOW  32  30  93 N6G12     29.95R WCI  26
AUBURN +       FLURRIES  32  32 100 N12       29.95R WCI  23
FORT WAYNE     LGT SNOW  33  32  96 N13G22    29.95R FOG     WCI  24
HUNTINGTON +   LGT SNOW  32  31  96 N5        29.94R WCI  27
KENDALLVILLE + FLURRIES  32  31  96 N12       29.95R WCI  23

$$

INZ028-029-035-036-043>045-051>053-191000-
WEST CENTRAL INDIANA

CITY           SKY/WX    TMP DP  RH WIND       PRES   REMARKS
CRAWFORDSVL +  CLOUDY    32  30  94 W14       30.01R WCI  22
GREENCASTLE +  CLOUDY    34  28  80 NW7G18    30.02R WCI  28
LAFAYETTE      CLOUDY    33  32  96 NW16      30.00R FOG     WCI  23
TERRE HAUTE    CLOUDY    36  30  79 NW18G28   30.05R WCI  26

$$

INZ030>032-037>040-046>048-054>057-064-065-191000-
CENTRAL INDIANA

CITY           SKY/WX    TMP DP  RH WIND       PRES   REMARKS
FISHERS *+     CLOUDY    32  32 100 W13G22    29.97  WCI  22
FRANKFORT +    LGT SNOW  36  33  90 NW16      29.99R WCI  26
GREENWOOD *+   CLOUDY    35  28  78 NW13G24   29.99R WCI  26
INDIANAPOLIS   CLOUDY    35  29  78 W17G30    29.99R WCI  25
-EAGLE CREEK   CLOUDY    36  29  75 W16G28    29.97R WCI  26
KOKOMO +       LGT SNOW  33  32  96 NW13      29.96R FOG     WCI  24
MARION +       LGT SNOW  32  32  99 NW15      29.94R WCI  22
MT COMFORT *+  CLOUDY    34  32  93 W17       29.97R WCI  23
SHELBYVILLE    CLOUDY    37  28  70 W17       29.97R WCI  27
ZIONSVILLE +   LGT SNOW  32  31  96 W9G17     29.97R WCI  24

$$

INZ033-034-041-042-049-050-058-059-191000-
EAST CENTRAL INDIANA

CITY           SKY/WX    TMP DP  RH WIND       PRES   REMARKS
MUNCIE         LGT SNOW  35  32  88 W14G20    29.92R FOG     WCI  26
RICHMOND +     CLOUDY    34  32  93 W16G24    29.92R WCI  23

$$

INZ060-061-067>069-081>083-085>088-191000-
SOUTHWEST INDIANA

CITY           SKY/WX    TMP DP  RH WIND       PRES   REMARKS
EVANSVILLE     CLOUDY    39  28  64 NW13G22   30.11R WCI  31
HUNTINGBURG +  CLOUDY    38  27  64 NW16G23   30.07R WCI  29
WASHINGTON +   CLOUDY    37  28  70 NW16G22   30.07R WCI  27

$$

INZ062-063-066-070>080-084-089>092-191000-
SOUTH CENTRAL AND SOUTHEAST INDIANA

CITY           SKY/WX    TMP DP  RH WIND       PRES   REMARKS
BATESVILLE +   CLOUDY    37  28  70 MISG      29.94R
BEDFORD +      CLOUDY    37  27  65 W9G20     30.01R WCI  31
BLOOMINGTON    MOCLDY    35  28  75 NW10G22   30.01R WCI  27
FRENCH LICK *+ MOCLDY    36  23  60 W8G20     30.05R WCI  29
MADISON *+     CLOUDY    37  28  70 W12G18    30.00R WCI  30
NORTH VERNON + CLOUDY    37  27  65 NW15      29.99R WCI  28
SEYMOUR +      CLOUDY    39  28  65 W12G18    30.00R WCI  32

$$




USA.gov is the U.S. government's official web portal to all federal, state and local government web resources and services.